Weather in Tam Ky

Vietnam     15°33′01″N   108°28′47″E
temp.,
°C
wind,
m/s
gust,
m/s
humid.,
%
clouds,
%
prec.,
mm/h
press.,
hPa
HPBL,
m
17 june, thu
thu1701:00+24sw228649 0.1 100735
04:00+24sw228422 0.1 100745
07:00+27sw227310 0.3 1008165
10:00+35w13445 0.0 1007997
13:00+36e54435 0.0 10051439
16:00+31sw355983 0.2 1006842
19:00+25wnw119173 3.3 100835
22:00+24sw229020 0.1 100944
18 june, fri
fri1801:00+23sw228940 0.1 100848
04:00+24sw228550 0.0 100744
07:00+28sw12698 0.0 1008157
10:00+35n1243100 0.0 10081189
13:00+35e544540 0.0 10051431
16:00+33ese575496 0.0 1004535
19:00+27sse128121 0.3 100755
22:00+26ssw22865 0.0 100844
19 june, sat
sat1901:00+25wsw228840 0.0 100641
04:00+24sw228580 0.0 100646
07:00+29sw22633 0.0 1007181
10:00+36w143826 0.0 10061486
13:00+39ene243370 0.0 10032570
16:00+33e575652 0.0 1002441
19:00+28sse23735 0.1 100479
22:00+27s237792 0.0 100549
20 june, sun
sun2001:00+26wsw227622 0.0 100340
04:00+25wsw227669 0.0 100350
07:00+29wsw236084 0.0 1004205
10:00+37w143710 0.0 10031557
13:00+39ne243219 0.0 10002611
16:00+37ese344087 0.0 999925
19:00+28sw3471100 0.0 100198
22:00+27ssw2270100 0.0 100344
21 june, mon
mon2101:00+27sw2370100 0.0 100157
04:00+26sw237397 0.0 100157
07:00+30wsw226188 0.0 1002181
10:00+36w2439100 0.0 10011458
13:00+39ene343485 0.0 9982532
16:00+32e3657100 0.0 998233
19:00+29s2268100 0.3 100056
22:00+27sw2377100 0.1 100262